Location: Marstown
(39.5056°N, 77.0820°W)
Time: 00:52:24
(UTC-04:00)

Tiangong 1 - Visible Passes

Search period start: 23 July 2017 00:00
Search period end: 02 August 2017 00:00
Orbit: 315 x 343 km, 42.8° (Epoch: 22 July)

Date Brightness Start Highest point End Pass type
(mag) Time Alt. Az. Time Alt. Az. Time Alt. Az.
25 Jul 3.1 05:11:37 10° S 05:13:25 16° SE 05:15:13 10° ESE visible
26 Jul 1.7 05:28:42 10° SW 05:31:17 38° SSE 05:33:54 10° E visible
27 Jul 3.2 04:14:32 14° SE 04:14:32 14° SE 04:15:45 10° ESE visible
28 Jul 1.6 04:31:37 34° SSE 04:31:52 35° SSE 04:34:26 10° E visible
29 Jul 0.6 04:48:38 32° WSW 04:49:46 84° SSE 04:52:31 10° ENE visible
30 Jul 3.9 03:34:32 12° E 03:34:32 12° E 03:34:49 10° E visible
30 Jul 1.3 05:05:36 15° W 05:07:43 53° NNW 05:10:26 10° ENE visible
31 Jul 2.8 03:51:27 26° ENE 03:51:27 26° ENE 03:52:50 10° ENE visible
31 Jul 1.9 05:23:07 10° WNW 05:25:43 39° N 05:28:21 10° ENE visible
01 Aug 1.6 04:08:22 48° NNE 04:08:22 48° NNE 04:10:41 10° ENE visible
